Bellingham, WA

2:02 PM PST on February 27, 2017 (GMT -0800)
Bellingham International

Weather History for KBLI - June, 2014

Change the Weather History Date:

Sunday, June 8, 2014

  Actual Average Record
Temperature  
Mean Temperature 62 °F 58 °F  
Max Temperature 68 °F 66 °F 82 °F (1955)
Min Temperature 56 °F 50 °F 41 °F (1954)
Degree Days  
Heating Degree Days 3 7  
Month to date heating degree days 38 63  
Since 1 June heating degree days 38 63  
Cooling Degree Days 0 0  
Month to date cooling degree days 0 0  
Year to date cooling degree days 1 0  
Since 1 June cooling degree days 0 0  
Growing Degree Days 12 (Base 50)    
Moisture  
Dew Point 52 °F    
Average Humidity 69    
Maximum Humidity 80    
Minimum Humidity 58    
Precipitation  
Precipitation 0.00 in 0.08 in 0.61 in (1981)
Month to date precipitation 0.00 0.59  
Year to date precipitation 16.88 16.67  
Sea Level Pressure  
Sea Level Pressure 30.16 in    
Wind  
Wind Speed 12 mph (SSE)    
Max Wind Speed 17 mph    
Max Gust Speed 25 mph    
Visibility 10 miles    
Events      
T = Trace of Precipitation, MM = Missing Value Source: NWS Daily Summary

Daily Weather History Graph

Daily Weather History Graph

Search for Another Location

Airport or City:

Trip Planner

Search our weather history database for the weather conditions in past years. The results will help you decide how hot, cold, wet, or windy it might be!

Date:

Astronomy

Jun. 08, 2014 Rise Set
Actual Time 5:07 AM PDT 9:11 PM PDT
Civil Twilight 4:25 AM PDT 9:53 PM PDT
Nautical Twilight 3:27 AM PDT 10:51 PM PDT
Astronomical Twilight 1:41 AM PDT 12:40 AM PDT
Moon 4:14 PM PDT (6/8) 2:27 AM PDT (6/8)
Length of Visible Light 17h 27m
Length of Day
16h 03m
Waxing Gibbous, 78% of the Moon is Illuminated
Jun 8
Waxing Gibbous
Jun 12
Full
Jun 19
Last Quarter
Jun 27
New
Jul 5
First Quarter

Hourly Weather History & Observations

Time (PDT) Temp. Dew Point Humidity Pressure Visibility Wind Dir Wind Speed Gust Speed Precip Events Conditions
12:53 AM 59.0 °F 53.1 °F 81% 30.17 in 10.0 mi South 9.2 mph - N/A   Clear
1:53 AM 59.0 °F 51.1 °F 75% 30.18 in 10.0 mi South 6.9 mph - N/A   Clear
2:53 AM 57.9 °F 52.0 °F 81% 30.18 in 10.0 mi South 9.2 mph - N/A   Clear
3:53 AM 57.0 °F 52.0 °F 83% 30.19 in 10.0 mi South 11.5 mph - N/A   Clear
4:53 AM 57.0 °F 51.1 °F 81% 30.20 in 10.0 mi South 11.5 mph 18.4 mph N/A   Overcast
5:14 AM 57.2 °F 51.8 °F 82% 30.18 in 10.0 mi SSE 10.4 mph - N/A   Overcast
5:22 AM 57.2 °F 51.8 °F 82% 30.18 in 10.0 mi SSE 10.4 mph - N/A   Overcast
5:53 AM 57.0 °F 51.1 °F 81% 30.20 in 10.0 mi South 10.4 mph 18.4 mph N/A   Overcast
6:06 AM 57.2 °F 51.8 °F 82% 30.18 in 10.0 mi South 11.5 mph - N/A   Overcast
6:53 AM 57.2 °F 51.8 °F 82% 30.18 in 10.0 mi South 11.5 mph - N/A   Scattered Clouds
7:53 AM 57.0 °F 52.0 °F 83% 30.21 in 10.0 mi South 11.5 mph 19.6 mph N/A   Mostly Cloudy
8:53 AM 57.9 °F 52.0 °F 81% 30.21 in 10.0 mi SSE 12.7 mph 18.4 mph N/A   Mostly Cloudy
9:38 AM 59.0 °F 51.8 °F 77% 30.19 in 10.0 mi South 11.5 mph 20.7 mph N/A   Partly Cloudy
9:53 AM 60.1 °F 52.0 °F 75% 30.22 in 10.0 mi South 13.8 mph 23.0 mph N/A   Partly Cloudy
10:53 AM 61.0 °F 53.1 °F 75% 30.21 in 10.0 mi SSE 15.0 mph 21.9 mph N/A   Overcast
11:53 AM 62.1 °F 53.1 °F 72% 30.20 in 10.0 mi South 13.8 mph 21.9 mph N/A   Clear
12:53 PM 62.6 °F 53.6 °F 72% 30.18 in 10.0 mi SSE 12.7 mph - N/A   Clear
1:53 PM 64.9 °F 53.1 °F 65% 30.18 in 10.0 mi SSE 11.5 mph 17.3 mph N/A   Clear
2:53 PM 66.0 °F 53.1 °F 63% 30.16 in 10.0 mi South 12.7 mph - N/A   Clear
3:53 PM 68.0 °F 54.0 °F 61% 30.14 in 10.0 mi SSE 13.8 mph 18.4 mph N/A   Partly Cloudy
4:53 PM 66.0 °F 52.0 °F 60% 30.12 in 10.0 mi South 12.7 mph 20.7 mph N/A   Overcast
5:53 PM 66.0 °F 53.1 °F 63% 30.10 in 10.0 mi SSE 12.7 mph - N/A   Overcast
6:53 PM 66.0 °F 52.0 °F 60% 30.08 in 10.0 mi SSE 12.7 mph 21.9 mph N/A   Overcast
7:53 PM 64.9 °F 52.0 °F 63% 30.07 in 10.0 mi South 13.8 mph 21.9 mph N/A   Overcast
8:53 PM 64.0 °F 52.0 °F 65% 30.07 in 10.0 mi South 10.4 mph 23.0 mph N/A   Overcast
9:53 PM 63.0 °F 53.1 °F 70% 30.08 in 10.0 mi South 9.2 mph - N/A   Overcast
10:53 PM 62.1 °F 53.1 °F 72% 30.09 in 10.0 mi South 8.1 mph - N/A   Overcast
11:53 PM 62.1 °F 52.0 °F 70% 30.10 in 10.0 mi South 8.1 mph - N/A   Overcast